DW1869 Weather Reports


time (UTC)temp
C
wind
direction
speed
KPH
gust
KPH
rain 1hr
cm
rain 24hr
cm
rain mn
cm
humidity
%
barometer
mb
20260508010044 12 0 0.0 0.0 0.00 2.64 2.64 93 1012.7
20260508004548 12 0 0.0 1.6 0.00 2.64 2.64 93 1012.7
20260508003049 12 0 0.0 1.6 0.00 2.64 2.64 93 1012.4
20260508001609 11 0 0.0 1.6 0.00 2.64 2.64 93 1012.3
20260508000048 12 0 0.0 1.6 0.00 2.64 2.64 93 1012.3
20260507234549 12 0 0.0 3.2 0.00 2.64 2.64 93 1012.1
20260507233050 12 0 0.0 1.6 0.00 2.64 2.64 93 1011.7
20260507231549 12 0 0.0 3.2 0.00 2.64 2.64 93 1011.7
20260507230048 12 217 0.0 3.2 0.00 2.64 2.64 93 1011.4
20260507224554 12 70 0.0 4.8 0.00 2.64 2.64 93 1011.0
20260507223048 12 0 0.0 3.2 0.00 2.64 2.64 93 1011.5
20260507221552 12 173 0.0 3.2 0.00 2.64 2.64 93 1011.4
20260507220052 12 24 0.0 3.2 0.00 2.64 2.64 93 1011.7
20260507214551 12 109 0.0 4.8 0.00 2.64 2.64 93 1011.3
20260507213048 12 73 0.0 3.2 0.00 2.64 2.64 93 1011.3
20260507211547 12 0 0.0 6.4 0.00 2.64 2.64 93 1011.2
20260507210045 12 355 0.0 4.8 0.00 2.64 2.64 94 1011.3
20260507204553 12 0 0.0 4.8 0.00 2.64 2.64 94 1010.8
20260507203051 12 0 1.6 4.8 0.00 2.64 2.64 94 1010.8
20260507201557 12 148 0.0 4.8 0.00 2.64 2.64 94 1010.8
20260507200049 12 40 0.0 4.8 0.00 2.64 2.64 94 1011.1
20260507194544 12 0 0.0 3.2 0.00 2.64 2.64 94 1011.0
20260507193051 12 42 0.0 4.8 0.00 2.64 2.64 94 1011.3
20260507191556 12 0 1.6 6.4 0.00 2.64 2.64 93 1011.2
20260507190055 12 0 1.6 6.4 0.00 2.64 2.64 93 1010.8
20260507184603 13 284 1.6 9.7 0.00 2.64 2.64 94 1010.4
20260507183055 13 0 0.0 4.8 0.00 2.64 2.64 94 1010.4
20260507181601 13 255 0.0 4.8 0.03 2.64 2.64 94 1010.7
20260507180057 13 88 0.0 4.8 0.05 2.64 2.64 94 1010.4
20260507174557 13 0 0.0 6.4 0.08 2.64 2.64 94 1011.3
20260507173048 13 0 0.0 4.8 0.10 2.64 2.64 94 1010.7
20260507171602 13 0 1.6 4.8 0.08 2.64 2.64 94 1010.2
20260507170055 14 0 0.0 6.4 0.08 2.62 2.62 94 1010.2
20260507164557 14 56 0.0 9.7 0.08 2.59 2.59 94 1010.0
20260507163059 15 63 0.0 6.4 0.15 2.57 2.57 93 1010.8
20260507161550 16 40 1.6 6.4 0.18 2.57 2.57 93 1011.1
20260507160047 18 176 0.0 4.8 0.18 2.54 2.54 94 1010.8
20260507154601 18 0 0.0 1.6 0.23 2.51 2.51 94 1010.4
20260507153100 18 0 0.0 1.6 0.23 2.41 2.41 94 1010.6
20260507151550 18 0 0.0 1.6 0.25 2.39 2.39 94 1010.6
20260507150049 18 0 0.0 1.6 0.25 2.36 2.36 94 1010.7
20260507144553 18 0 0.0 1.6 0.20 2.29 2.29 94 1010.6
20260507143050 18 0 0.0 3.2 0.13 2.18 2.18 94 1010.6
20260507141552 18 336 0.0 4.8 0.10 2.13 2.13 94 1010.9
20260507140049 18 330 0.0 3.2 0.08 2.11 2.11 94 1010.9
20260507134554 18 323 0.0 3.2 0.05 2.08 2.08 94 1011.2
20260507133052 18 0 0.0 3.2 0.05 2.06 2.06 94 1011.1
20260507131559 18 0 0.0 3.2 0.03 2.03 2.03 94 1010.8
20260507130105 18 0 0.0 0.0 0.03 2.03 2.03 94 1010.8
20260507124554 18 0 0.0 1.6 0.18 2.03 2.03 94 1011.0
20260507123051 18 0 0.0 0.0 0.30 2.01 2.01 94 1011.2
20260507121606 18 0 0.0 1.6 0.58 2.01 2.01 94 1011.0
20260507120055 18 0 0.0 1.6 1.24 2.01 2.01 94 1011.3
20260507114609 17 0 0.0 3.2 1.32 1.85 1.85 94 1011.6
20260507113051 17 0 0.0 1.6 1.37 1.70 1.70 94 1011.4
20260507111550 17 202 0.0 6.4 1.14 1.40 1.40 94 1011.4
20260507110052 17 0 0.0 1.6 0.51 0.76 0.76 94 1011.3
20260507104552 17 0 0.0 0.0 0.25 0.51 0.51 94 1011.2
20260507103051 17 0 0.0 0.0 0.08 0.33 0.33 94 1011.1
20260507101552 17 0 0.0 0.0 0.00 0.25 0.25 94 1011.0
20260507100051 17 0 0.0 0.0 0.00 0.25 0.25 94 1011.1
20260507094551 17 0 0.0 1.6 0.03 0.25 0.25 93 1011.0
20260507093055 17 0 0.0 1.6 0.08 0.25 0.25 93 1010.9
20260507091556 17 0 0.0 1.6 0.08 0.25 0.25 93 1011.0
20260507090055 17 0 0.0 1.6 0.10 0.25 0.25 93 1011.3
20260507084547 17 0 0.0 1.6 0.08 0.23 0.23 93 1011.2
20260507083053 17 0 0.0 4.8 0.03 0.18 0.18 93 1011.6
20260507081554 17 0 0.0 1.6 0.03 0.18 0.18 93 1011.5
20260507080051 17 0 0.0 1.6 0.00 0.15 0.15 93 1011.6
20260507074608 17 0 0.0 0.0 0.00 0.15 0.15 93 1011.8
20260507073053 17 0 0.0 1.6 0.00 0.15 0.15 93 1012.0
20260507071553 17 0 0.0 3.2 0.00 0.15 0.15 93 1012.0
20260507070054 17 320 0.0 3.2 0.00 0.15 0.15 93 1012.1
20260507064557 18 0 0.0 3.2 0.00 0.15 0.15 93 1012.5
20260507063051 18 0 0.0 1.6 0.03 0.15 0.15 93 1012.5
20260507061551 18 0 0.0 1.6 0.08 0.15 0.15 93 1012.3
20260507060056 18 0 0.0 1.6 0.08 0.15 0.15 93 1012.6
20260507054604 18 0 0.0 1.6 0.13 0.15 0.15 92 1012.6
20260507053058 18 0 0.0 1.6 0.13 0.13 0.13 92 1012.8
20260507051557 18 0 0.0 0.0 0.08 0.08 0.08 92 1013.1
20260507050057 18 0 0.0 6.4 0.08 0.08 0.08 92 1013.0
20260507044600 18 231 1.6 8.0 0.03 0.03 0.03 91 1013.0
20260507043050 18 0 0.0 1.6 0.00 0.00 0.00 92 1014.1
20260507041601 18 0 0.0 1.6 0.00 0.00 0.00 91 1014.3
20260507040051 18 0 0.0 1.6 0.00 0.00 0.00 91 1013.7
20260507034556 18 0 0.0 1.6 0.00 0.00 0.00 91 1013.1
20260507033056 18 0 0.0 0.0 0.00 0.00 0.00 91 1013.4
20260507031605 19 0 0.0 0.0 0.00 0.00 0.00 91 1013.3
20260507030057 19 0 0.0 0.0 0.00 0.00 0.00 90 1013.2
20260507024553 19 0 0.0 0.0 0.00 0.00 0.00 90 1012.9
20260507023103 19 0 0.0 0.0 0.00 0.00 0.00 89 1012.9
20260507021551 19 0 0.0 0.0 0.00 0.00 0.00 89 1012.4
20260507020050 19 0 0.0 0.0 0.00 0.00 0.00 89 1013.0
20260507014600 19 0 0.0 0.0 0.00 0.00 0.00 88 1013.1
20260507013047 19 0 0.0 0.0 0.00 0.00 0.00 88 1012.8
20260507011552 19 0 0.0 0.0 0.00 0.00 0.00 88 1013.1